K3TLB-13 Weather Reports


time (UTC)temp
C
wind
direction
speed
KPH
gust
KPH
rain 1hr
cm
rain 24hr
cm
rain mn
cm
humidity
%
barometer
mb
20260504100405 1 325 0.0 0.0 0.00 0.00 0.00 88 1014.9
20260504081906 1 302 0.0 0.0 0.00 0.00 0.00 87 1015.5
20260504081407 1 301 0.0 0.0 0.00 0.00 0.00 87 1015.3
20260504080906 1 302 0.0 0.0 0.00 0.00 0.00 86 1015.4
20260504080406 1 301 0.0 0.0 0.00 0.00 0.00 85 1015.4
20260504070406 1 0 0.0 0.0 0.00 0.00 0.00 87 1015.6
20260504050406 2 131 0.0 0.0 0.00 0.00 0.00 84 1015.8
20260504045908 2 131 0.0 0.0 0.00 0.00 0.00 83 1015.8
20260504045407 2 131 0.0 0.0 0.00 0.00 0.00 84 1015.8
20260504044907 2 131 0.0 0.0 0.00 0.00 0.00 82 1015.9
20260504044406 2 131 0.0 0.0 0.00 0.00 0.00 82 1015.8
20260504043906 2 131 0.0 0.0 0.00 0.00 0.00 81 1015.8
20260504043406 2 131 0.0 0.0 0.00 0.00 0.00 80 1015.8
20260504042906 3 131 0.0 0.0 0.00 0.00 0.00 79 1015.7
20260504042406 3 131 0.0 0.0 0.00 0.00 0.00 78 1015.7
20260504041906 3 131 0.0 0.0 0.00 0.00 0.00 78 1015.7
20260504041406 3 131 0.0 0.0 0.00 0.00 0.00 77 1015.7
20260504040906 3 131 0.0 0.0 0.00 0.00 0.00 76 1015.7
20260504040407 4 131 0.0 0.0 0.00 0.00 0.00 74 1015.7
20260504035906 5 131 0.0 0.0 0.00 0.00 0.00 73 1015.7
20260504035406 5 131 0.0 0.0 0.00 0.00 0.00 71 1015.6
20260504034907 4 131 0.0 0.0 0.00 0.00 0.00 75 1015.6
20260504034406 4 131 0.0 0.0 0.00 0.00 0.00 78 1015.7
20260504033906 4 131 0.0 0.0 0.00 0.00 0.00 78 1015.7
20260504033406 4 131 0.0 0.0 0.00 0.00 0.00 78 1015.8
20260504032910 4 131 0.0 0.0 0.00 0.00 0.00 77 1015.7
20260504032408 4 131 0.0 0.0 0.00 0.00 0.00 77 1015.7
20260504031907 4 131 0.0 0.0 0.00 0.00 0.00 78 1015.7
20260504031406 4 131 0.0 0.0 0.00 0.00 0.00 76 1015.6
20260504030906 4 131 0.0 0.0 0.00 0.00 0.00 74 1015.4
20260504030406 5 131 0.0 0.0 0.00 0.00 0.00 74 1015.3
20260504025906 5 131 0.0 0.0 0.00 0.00 0.00 75 1015.2
20260504025406 5 131 0.0 0.0 0.00 0.00 0.00 72 1015.3
20260504024906 5 131 0.0 0.0 0.00 0.00 0.00 70 1015.3
20260504024406 6 131 0.0 0.0 0.00 0.00 0.00 70 1015.3
20260504023906 6 131 0.0 0.0 0.00 0.00 0.00 70 1015.2
20260504023406 6 131 0.0 0.0 0.00 0.00 0.00 71 1015.3
20260504022911 6 131 0.0 0.0 0.00 0.00 0.00 71 1015.2
20260504022500 6 131 0.0 0.0 0.00 0.00 0.00 71 1015.2
20260504022407 6 131 0.0 0.0 0.00 0.00 0.00 71 1015.2
20260504021906 6 131 0.0 0.0 0.00 0.00 0.00 71 1015.1
20260504021407 6 131 0.0 0.0 0.00 0.00 0.00 68 1015.1
20260504020907 6 131 0.0 0.0 0.00 0.00 0.00 67 1015.1
20260504020409 6 131 0.0 0.0 0.00 0.00 0.00 65 1015.1
20260504015908 7 131 0.0 0.0 0.00 0.00 0.00 67 1015.1
20260504015408 7 131 0.0 0.0 0.00 0.00 0.00 66 1015.0
20260504014908 8 131 0.0 0.0 0.00 0.00 0.00 56 1014.9
20260504014408 9 131 0.0 0.0 0.00 0.00 0.00 55 1014.9
20260504013907 10 131 0.0 1.6 0.00 0.00 0.00 52 1015.0
20260504013407 9 141 0.0 0.0 0.00 0.00 0.00 50 1014.9
20260504012907 8 232 0.0 0.0 0.00 0.00 0.00 52 1014.9
20260504012407 8 231 0.0 0.0 0.00 0.00 0.00 51 1014.8
20260504011907 9 231 0.0 0.0 0.00 0.00 0.00 55 1014.8
20260504011408 9 232 0.0 0.0 0.00 0.00 0.00 51 1014.8
20260504010907 10 232 0.0 0.0 0.00 0.00 0.00 47 1014.7
20260504010407 10 232 0.0 0.0 0.00 0.00 0.00 46 1014.7
20260504005910 11 232 0.0 0.0 0.00 0.00 0.00 42 1014.8
20260504005407 11 232 0.0 0.0 0.00 0.00 0.00 41 1014.8
20260504004907 11 232 0.0 0.0 0.00 0.00 0.00 42 1014.8
20260504004407 11 232 0.0 0.0 0.00 0.00 0.00 41 1014.7
20260504003907 12 232 0.0 1.6 0.00 0.00 0.00 45 1014.7
20260504003407 12 213 0.0 3.2 0.00 0.00 0.00 40 1014.6
20260504002907 12 230 0.0 1.6 0.00 0.00 0.00 38 1014.6
20260504002407 12 188 0.0 1.6 0.00 0.00 0.00 38 1014.6
20260504001907 13 230 0.0 0.0 0.00 0.00 0.00 37 1014.6
20260504001407 13 234 0.0 0.0 0.00 0.00 0.00 37 1014.6
20260504000907 13 224 0.0 0.0 0.00 0.00 0.00 37 1014.4
20260504000408 13 257 0.0 3.2 0.00 0.00 0.00 36 1014.3
20260503235907 13 234 1.6 3.2 0.00 0.00 0.00 36 1014.3
20260503235407 13 254 4.8 6.4 0.00 0.00 0.00 36 1014.3
20260503234907 14 270 4.8 6.4 0.00 0.00 0.00 36 1014.3
20260503234407 14 254 4.8 6.4 0.00 0.00 0.00 35 1014.2
20260503233907 14 262 8.0 8.0 0.00 0.00 0.00 34 1014.1
20260503233407 14 252 9.7 14.5 0.00 0.00 0.00 34 1014.1
20260503232911 15 246 9.7 14.5 0.00 0.00 0.00 34 1014.1
20260503232407 15 243 8.0 19.3 0.00 0.00 0.00 34 1014.1
20260503231907 15 275 4.8 19.3 0.00 0.00 0.00 33 1014.0
20260503231407 15 223 8.0 9.7 0.00 0.00 0.00 34 1013.9
20260503230907 15 262 11.3 17.7 0.00 0.00 0.00 35 1013.8
20260503230407 15 271 11.3 19.3 0.00 0.00 0.00 33 1013.8
20260503225910 15 267 11.3 19.3 0.00 0.00 0.00 32 1013.8
20260503225407 15 267 11.3 16.1 0.00 0.00 0.00 32 1013.9
20260503224907 15 271 12.9 22.5 0.00 0.00 0.00 32 1013.9
20260503224407 15 270 16.1 24.1 0.00 0.00 0.00 34 1013.9
20260503223907 15 261 16.1 30.6 0.00 0.00 0.00 32 1013.9
20260503223407 15 251 12.9 17.7 0.00 0.00 0.00 33 1014.0
20260503222907 15 288 11.3 17.7 0.00 0.00 0.00 34 1014.1
20260503222407 15 276 12.9 19.3 0.00 0.00 0.00 34 1014.0
20260503221907 15 292 16.1 20.9 0.00 0.00 0.00 33 1014.1
20260503221407 15 269 16.1 22.5 0.00 0.00 0.00 33 1014.0
20260503220907 15 259 14.5 32.2 0.00 0.00 0.00 32 1014.1
20260503220407 15 237 11.3 16.1 0.00 0.00 0.00 35 1014.2
20260503215910 15 271 12.9 20.9 0.00 0.00 0.00 32 1014.2
20260503215407 15 233 14.5 22.5 0.00 0.00 0.00 33 1014.2
20260503214907 15 242 17.7 22.5 0.00 0.00 0.00 33 1014.2
20260503214408 15 261 16.1 24.1 0.00 0.00 0.00 33 1014.2
20260503213907 15 273 16.1 27.4 0.00 0.00 0.00 33 1014.1
20260503213407 15 294 17.7 25.7 0.00 0.00 0.00 32 1014.1
20260503212907 15 263 19.3 27.4 0.00 0.00 0.00 33 1014.1
20260503212407 15 276 17.7 27.4 0.00 0.00 0.00 34 1014.0
20260503211907 15 242 12.9 25.7 0.00 0.00 0.00 36 1014.0
20260503211503 15 261 11.3 20.9 0.00 0.00 0.00 34 1014.0
20260503211407 15 261 11.3 20.9 0.00 0.00 0.00 34 1014.0
20260503210407 15 281 14.5 22.5 0.00 0.00 0.00 33 1013.9
20260503205910 15 281 14.5 20.9 0.00 0.00 0.00 35 1014.0
20260503205407 15 279 16.1 20.9 0.00 0.00 0.00 34 1013.9
20260503204907 15 269 17.7 27.4 0.00 0.00 0.00 37 1014.0
20260503204407 15 302 16.1 25.7 0.00 0.00 0.00 33 1014.0
20260503203907 15 279 19.3 27.4 0.00 0.00 0.00 32 1014.0
20260503203407 15 262 14.5 29.0 0.00 0.00 0.00 33 1013.9
20260503202910 15 236 12.9 29.0 0.00 0.00 0.00 35 1014.0
20260503202507 14 300 8.0 20.9 0.00 0.00 0.00 36 1014.1
20260503202408 14 300 8.0 20.9 0.00 0.00 0.00 36 1014.1
20260503201907 14 286 12.9 14.5 0.00 0.00 0.00 32 1014.2
20260503201407 14 295 17.7 25.7 0.00 0.00 0.00 35 1014.3
20260503200907 15 238 17.7 32.2 0.00 0.00 0.00 34 1014.3
20260503200407 15 229 12.9 24.1 0.00 0.00 0.00 34 1014.3
20260503195910 15 273 16.1 22.5 0.00 0.00 0.00 35 1014.4
20260503195457 14 289 19.3 33.8 0.00 0.00 0.00 32 1014.5
20260503195407 14 289 19.3 33.8 0.00 0.00 0.00 32 1014.5
20260503194907 15 293 19.3 30.6 0.00 0.00 0.00 33 1014.4
20260503194407 14 267 20.9 33.8 0.00 0.00 0.00 36 1014.6
20260503193907 14 281 22.5 33.8 0.00 0.00 0.00 33 1014.7
20260503193407 15 286 17.7 53.1 0.00 0.00 0.00 33 1014.7
20260503192910 15 237 11.3 29.0 0.00 0.00 0.00 35 1014.7
20260503192407 14 321 12.9 16.1 0.00 0.00 0.00 33 1014.8
20260503191907 13 300 16.1 22.5 0.00 0.00 0.00 30 1015.0
20260503191451 14 305 12.9 32.2 0.00 0.00 0.00 30 1015.0
20260503191408 14 305 12.9 32.2 0.00 0.00 0.00 30 1015.0
20260503190907 15 316 11.3 22.5 0.00 0.00 0.00 39 1014.9
20260503190407 14 223 14.5 17.7 0.00 0.00 0.00 36 1014.9
20260503185908 13 256 16.1 27.4 0.00 0.00 0.00 31 1015.1
20260503185408 13 272 11.3 20.9 0.00 0.00 0.00 33 1015.1
20260503184908 13 277 12.9 14.5 0.00 0.00 0.00 34 1015.3
20260503184408 13 286 12.9 27.4 0.00 0.00 0.00 36 1015.2
20260503183908 13 306 16.1 19.3 0.00 0.00 0.00 33 1015.4
20260503183408 13 288 17.7 32.2 0.00 0.00 0.00 34 1015.5
20260503182908 13 259 14.5 24.1 0.00 0.00 0.00 33 1015.3
20260503182504 13 288 17.7 25.7 0.00 0.00 0.00 33 1015.5
20260503182408 13 288 17.7 25.7 0.00 0.00 0.00 33 1015.5
20260503181908 13 249 19.3 32.2 0.00 0.00 0.00 34 1015.4
20260503181408 13 289 17.7 32.2 0.00 0.00 0.00 31 1015.5
20260503180908 13 257 19.3 27.4 0.00 0.00 0.00 33 1015.5
20260503180408 13 273 24.1 32.2 0.00 0.00 0.00 37 1015.5
20260503175908 13 238 16.1 37.0 0.00 0.00 0.00 32 1015.7
20260503175408 13 256 14.5 30.6 0.00 0.00 0.00 40 1015.6
20260503174908 12 261 14.5 20.9 0.00 0.00 0.00 34 1015.7
20260503174408 12 239 17.7 27.4 0.00 0.00 0.00 39 1015.7
20260503173908 12 207 19.3 30.6 0.00 0.00 0.00 36 1015.7
20260503173408 12 270 19.3 25.7 0.00 0.00 0.00 37 1015.7
20260503172908 12 263 19.3 32.2 0.00 0.00 0.00 33 1015.8
20260503172408 12 269 14.5 33.8 0.00 0.00 0.00 39 1015.9
20260503171908 12 281 9.7 20.9 0.00 0.00 0.00 43 1015.9
20260503171408 12 321 14.5 17.7 0.00 0.00 0.00 37 1015.8
20260503170908 11 309 16.1 27.4 0.00 0.00 0.00 35 1015.9
20260503170409 11 288 14.5 35.4 0.00 0.00 0.00 40 1015.9
20260503150913 9 294 14.5 22.5 0.00 0.00 0.00 39 1017.1
20260503150408 9 309 16.1 19.3 0.00 0.00 0.00 42 1017.1
20260503131409 7 303 14.5 20.9 0.00 0.00 0.00 50 1017.4
20260503130911 7 294 16.1 25.7 0.00 0.00 0.00 49 1017.5
20260503130409 7 278 14.5 27.4 0.00 0.00 0.00 50 1017.5
20260503110411 3 274 1.6 4.8 0.00 0.00 0.00 67 1016.4